Theta_e
327 328 328 327 329 328 329 330 332 334 335 336 337 338 339 337 336 337 339 340 335 331 329 328 326 324 324 324 324 325 327 329 330 331 331 332 331 329 331 331 332 332 332 332 332 333 334 334 334 334 337 337 335 331 337 335 332 331 332 333 334 333 335 337 337 336 333 331 332 333 334 335 337 336 335 335 333 334 336 337 338 337 337 337 338
323 325 326 327 326 328 328 328 330 330 332 333 334 336 337 335 335 336 338 336 333 332 329 329 326 323 323 324 322 322 322 324 326 329 330 331 332 331 331 331 331 331 331 331 331 330 332 331 333 333 333 335 336 336 335 335 336 334 333 332 333 333 333 335 334 332 327 325 327 324 331 332 331 334 334 334 335 335 336 337 339 338 338 340 341
322 323 325 325 327 327 326 328 329 331 332 331 334 335 335 335 333 338 335 334 333 333 330 327 327 328 326 323 323 323 328 329 327 328 330 328 329 328 328 328 329 329 330 330 329 328 328 330 331 332 333 334 335 335 335 335 335 333 333 331 329 333 334 335 334 332 328 330 331 327 325 323 330 330 331 332 333 336 336 336 336 335 335 337 339
324 322 322 323 325 325 325 326 328 330 331 330 331 332 333 332 334 336 335 334 333 333 329 330 330 330 332 330 329 326 326 329 330 330 328 326 324 326 327 327 327 328 328 327 327 329 329 329 330 330 331 332 331 331 332 334 335 334 335 334 333 328 329 331 334 335 331 329 322 324 324 323 319 323 327 332 333 333 332 334 333 332 333 334 338
325 325 324 323 322 324 324 325 327 327 329 329 330 330 331 331 334 335 334 333 333 332 331 332 330 328 329 330 329 328 327 326 325 323 325 324 325 326 325 327 328 327 327 326 324 327 327 327 328 330 329 329 329 328 328 328 332 334 334 333 332 331 327 330 331 333 332 333 330 321 320 317 320 323 326 328 330 331 329 330 332 332 333 334 335
323 325 325 324 323 324 325 325 325 326 328 329 331 330 331 330 334 335 333 333 331 332 332 328 325 324 322 320 319 319 319 320 318 320 321 322 322 325 326 327 327 327 326 326 326 325 326 327 327 327 329 328 327 327 326 326 327 328 330 330 330 331 328 325 328 331 331 331 330 330 325 319 323 326 323 318 330 328 332 331 330 331 332 333 335
321 323 326 325 324 323 324 324 324 325 327 330 330 330 330 330 334 334 332 331 332 331 331 327 325 324 324 321 319 319 317 319 323 323 323 322 325 325 325 328 327 327 327 327 326 326 325 325 327 326 326 327 327 326 325 325 324 325 328 327 327 328 328 326 326 327 331 331 331 333 330 329 329 324 321 321 316 328 327 331 330 332 332 333 333
318 320 322 325 326 324 323 324 324 324 327 328 329 329 329 330 332 332 331 330 332 331 330 327 324 324 323 321 320 318 319 320 323 325 326 325 324 324 325 325 327 327 326 326 326 326 326 324 326 326 325 325 324 324 323 325 326 326 328 327 327 327 326 323 323 328 324 323 327 327 327 328 328 327 326 322 321 317 321 328 331 332 333 333 332
315 316 320 322 324 325 325 325 325 325 325 327 327 328 329 331 331 332 330 330 331 331 329 327 325 324 323 322 319 319 322 321 321 323 323 325 324 323 324 324 326 327 326 326 326 325 325 325 325 323 322 321 320 321 323 324 325 325 325 326 325 325 324 324 322 321 321 320 322 323 323 323 324 327 327 325 320 318 317 319 322 330 329 331 333
311 312 316 321 324 325 327 327 325 324 326 328 327 327 328 330 329 330 329 329 330 331 328 327 326 326 324 322 320 320 320 320 321 321 323 324 323 324 323 323 324 325 326 325 324 322 320 319 318 318 319 317 317 317 319 320 321 321 323 323 324 324 325 324 322 321 321 321 320 321 319 318 320 320 322 321 322 323 315 315 320 320 319 325 331
309 310 311 315 321 325 326 325 325 325 327 326 326 325 327 329 328 328 329 328 330 330 328 327 326 327 324 324 322 321 320 320 320 322 322 323 322 323 322 322 324 323 323 324 322 319 319 319 319 318 319 318 317 317 318 317 319 320 320 321 322 322 321 321 321 321 320 320 321 319 318 318 317 316 317 317 318 317 315 315 317 317 317 318 323
309 310 310 312 316 322 324 324 324 325 326 325 325 324 325 327 328 327 327 327 329 329 328 327 326 327 326 326 323 323 323 320 321 321 322 322 323 321 322 321 323 323 323 320 320 320 320 320 320 319 318 318 318 318 318 318 319 319 319 319 319 319 320 320 320 319 319 319 319 319 318 318 318 316 316 317 317 317 316 314 313 314 316 317 320
309 310 311 311 314 320 322 322 323 324 324 324 324 324 325 326 326 325 325 327 328 329 327 327 327 327 325 327 326 325 324 321 320 321 322 321 322 321 321 319 321 321 321 320 320 321 321 321 321 318 318 318 318 317 318 318 318 317 318 319 319 318 318 319 317 318 318 318 316 317 316 317 317 317 317 317 317 317 316 313 314 315 313 314 315
310 310 311 313 316 319 321 321 321 323 324 323 323 323 323 324 325 324 325 327 328 328 327 327 327 328 327 328 328 326 326 324 321 322 323 321 322 322 321 320 320 322 321 321 320 320 320 322 322 320 319 318 318 318 318 318 319 316 317 317 317 318 318 318 317 317 317 316 317 314 315 314 315 316 316 315 315 314 313 313 313 313 314 311 313
311 313 312 314 318 320 320 321 322 323 323 323 323 323 323 323 323 323 324 326 326 326 327 326 326 327 328 328 328 329 327 324 322 322 324 322 322 323 321 321 320 322 322 323 321 320 321 322 322 320 319 319 318 318 317 318 318 317 317 318 318 318 317 317 317 317 315 314 315 315 314 315 313 313 314 313 312 314 313 313 312 308 309 311 312
311 312 315 317 318 320 321 322 322 322 323 323 323 323 323 322 323 324 324 326 325 325 326 326 326 327 328 329 329 329 327 326 324 323 324 324 324 323 322 322 322 322 324 324 322 322 322 322 321 321 320 319 319 318 318 317 317 316 316 317 317 317 317 317 316 316 316 315 315 314 314 312 314 313 313 314 312 313 313 313 313 311 307 304 309
312 311 313 316 318 320 319 321 321 322 322 322 322 323 323 322 322 323 323 325 325 325 325 326 327 328 328 329 329 329 329 327 326 327 327 327 326 324 322 323 323 324 324 326 323 323 323 322 322 321 321 319 319 318 317 317 317 317 317 316 317 317 317 316 316 315 315 315 314 314 313 314 313 315 313 314 314 314 313 313 312 311 311 308 305
312 312 313 314 317 319 319 320 320 321 322 322 322 324 324 324 323 322 322 323 323 324 325 326 326 327 328 329 329 329 329 329 328 329 329 327 326 324 323 323 323 325 326 326 325 323 323 322 322 321 321 319 318 317 317 316 317 316 316 316 315 316 315 315 314 314 314 314 313 313 314 313 313 314 313 313 314 314 312 313 312 313 312 309 308
311 312 312 312 314 316 318 320 320 320 320 322 322 323 324 324 324 324 321 321 322 323 324 325 326 326 327 328 329 329 329 329 329 329 329 327 325 324 324 324 325 325 325 325 324 323 323 322 322 321 320 319 318 317 317 317 317 316 316 315 316 316 314 313 313 313 312 313 312 311 312 312 312 314 314 314 314 313 313 313 312 313 312 312 311
310 311 311 311 312 314 316 317 317 318 319 320 320 321 321 323 323 323 324 323 322 322 324 324 325 326 327 328 328 327 327 327 329 329 328 327 325 324 324 324 325 324 324 324 323 323 323 322 321 321 320 319 318 317 317 317 317 316 315 314 314 314 313 313 312 312 310 312 312 311 310 310 310 310 312 312 311 312 313 311 312 312 312 312 311
309 310 311 312 312 312 313 315 316 318 320 320 320 320 320 320 320 320 321 322 323 324 323 323 324 324 325 326 327 327 327 327 328 329 328 327 326 326 325 325 325 324 323 323 322 322 322 322 321 320 319 319 318 317 317 317 316 315 314 314 313 312 311 311 312 311 311 311 309 309 309 310 311 310 311 311 310 310 310 310 311 311 310 311 310
308 309 310 310 312 313 313 314 314 314 315 316 319 321 320 320 319 320 320 320 321 321 323 322 323 323 324 325 325 326 327 327 328 328 328 326 326 325 327 325 325 324 323 322 321 322 322 322 321 320 319 318 317 316 316 316 314 314 314 313 313 311 311 310 311 309 310 310 311 309 308 309 309 307 310 308 309 308 308 308 309 310 308 310 312
308 308 308 309 310 310 310 311 312 313 313 313 314 314 316 318 320 320 320 320 320 321 321 323 323 324 324 324 324 324 325 326 326 326 327 326 326 326 326 325 324 324 323 323 321 322 322 322 321 320 319 318 317 316 316 315 314 313 312 313 313 312 311 311 310 309 308 309 309 309 309 310 310 309 309 310 311 309 309 308 309 309 308 309 309
307 308 308 308 308 308 308 307 308 309 310 310 311 311 312 313 312 311 311 314 319 322 322 322 323 324 325 325 325 324 325 325 325 325 326 327 326 326 326 325 324 324 323 324 323 322 322 321 320 320 319 318 317 316 315 315 314 313 312 311 311 312 311 310 309 309 307 308 308 307 308 308 309 308 309 308 308 309 309 308 309 309 310 309 310
307 307 307 307 307 307 306 306 306 306 307 309 308 309 309 310 310 309 310 311 313 317 321 322 322 322 323 324 324 324 324 325 324 325 326 326 326 326 326 324 324 323 324 324 322 323 322 321 320 319 319 318 317 316 315 314 314 313 312 312 311 311 311 310 309 309 307 308 306 307 306 307 307 307 308 308 308 308 307 307 307 307 306 307 309
307 308 308 307 307 306 307 307 306 307 306 307 308 308 308 309 309 310 308 309 310 310 310 313 319 322 323 323 323 324 323 324 325 325 326 326 325 325 325 325 323 322 323 324 323 323 322 320 320 320 319 317 317 316 315 314 313 313 313 312 311 311 310 309 308 307 306 306 306 305 305 306 306 306 306 307 308 307 307 307 307 306 306 307 307
306 307 306 307 307 307 307 307 307 307 307 307 307 307 308 310 310 310 310 309 311 310 309 309 311 315 318 322 323 324 324 325 324 325 326 326 325 325 324 324 324 323 323 323 323 322 322 320 320 319 318 317 316 316 315 314 313 312 312 311 311 310 309 308 306 305 305 305 304 304 305 305 304 305 305 305 306 307 307 307 307 307 307 307 306
305 305 305 305 306 307 307 308 307 307 307 307 307 307 308 308 308 309 310 311 312 312 311 310 310 311 312 314 317 320 323 325 324 325 324 325 324 324 324 325 324 323 322 322 322 322 321 319 319 319 318 318 316 315 315 314 313 312 312 311 311 309 307 307 306 305 305 304 304 304 304 303 303 304 304 304 304 304 304 305 306 307 307 306 305
303 304 304 304 304 305 306 307 306 306 306 307 307 307 309 309 309 308 309 309 310 310 309 310 311 312 311 312 313 314 317 320 322 323 324 324 324 324 324 323 323 323 323 322 323 322 320 319 319 319 317 316 316 315 314 313 313 312 312 310 308 306 306 305 305 304 304 304 304 304 303 303 302 299 299 298 298 299 299 299 302 303 303 304 305
301 302 302 303 304 304 305 306 306 306 305 305 306 306 306 307 308 307 308 308 308 308 308 308 307 309 311 312 313 314 314 315 317 319 321 323 323 323 323 323 323 323 323 322 322 322 320 317 316 315 315 315 315 314 310 303 306 311 310 308 307 306 305 304 303 303 303 303 303 303 304 299 300 299 298 296 294 295 296 299 300 301 301 302 302
301 301 302 303 303 304 304 304 304 305 305 305 307 305 306 307 307 306 306 307 306 307 307 307 307 308 309 310 312 313 315 314 315 316 318 319 321 323 323 322 322 323 322 322 321 319 319 317 316 315 315 315 314 311 296 295 295 299 307 307 306 305 304 303 303 302 302 302 303 302 303 302 302 300 301 294 293 293 294 294 294 295 296 298 298
300 300 301 301 301 302 303 303 304 304 304 304 305 304 305 306 306 305 305 306 307 307 306 306 306 307 307 308 309 310 311 313 316 316 316 317 319 321 322 322 321 321 321 322 320 320 319 318 317 315 315 313 313 299 293 293 294 295 299 306 305 305 303 303 302 302 301 301 302 302 302 303 303 302 300 299 298 294 293 293 292 292 292 292 293
299 299 300 300 301 302 303 304 303 303 303 304 304 303 304 305 306 306 306 306 306 306 306 306 306 306 306 308 308 309 309 311 313 315 317 318 318 319 320 321 321 322 321 320 319 317 317 317 317 315 314 313 310 294 293 293 293 293 293 299 304 304 302 302 302 301 301 301 301 301 301 301 302 301 299 301 301 302 296 292 292 293 292 292 291
300 300 300 301 302 303 304 304 305 305 305 306 306 305 306 307 306 306 306 305 305 305 306 306 306 306 306 307 308 309 309 310 312 314 316 316 317 317 319 320 320 320 320 320 319 318 317 316 315 314 313 312 304 294 292 292 292 291 290 295 303 302 301 301 300 301 301 301 301 301 300 300 301 301 301 301 301 301 301 301 301 301 301 299 293
301 301 302 302 302 302 303 303 304 304 305 306 305 306 306 305 306 305 305 305 305 305 306 306 306 307 308 308 308 308 309 310 311 312 314 315 315 316 317 318 318 318 318 318 318 317 317 315 314 312 310 307 301 292 292 291 291 291 289 293 302 301 301 301 302 302 301 301 301 301 301 300 300 300 300 299 298 298 299 299 299 299 300 301 302
302 302 302 302 301 301 302 303 304 304 304 304 304 305 305 305 305 305 305 305 305 305 304 305 306 307 308 308 308 308 309 310 311 312 313 314 315 316 316 317 317 316 318 319 318 317 315 313 312 311 308 302 298 291 291 291 291 290 289 300 301 301 301 301 301 301 301 301 301 301 301 300 300 299 296 292 294 297 297 297 297 298 299 300 300
301 301 301 302 303 302 303 304 305 304 304 305 305 305 305 305 304 304 304 304 304 304 304 304 305 306 307 309 309 308 308 309 311 311 311 313 315 315 316 316 316 315 315 316 317 316 314 312 309 307 302 298 296 293 290 290 290 289 292 300 301 300 300 300 301 301 301 301 301 301 301 299 298 298 294 290 290 291 296 296 296 296 297 297 298
300 300 300 301 302 302 302 302 303 303 304 305 305 305 305 305 304 304 304 303 303 303 303 304 305 307 307 308 309 308 308 309 310 310 312 313 315 316 316 316 315 314 314 315 314 313 311 309 306 303 301 298 297 294 290 290 290 289 294 299 299 299 299 300 300 301 302 301 301 299 298 298 298 298 292 289 289 292 295 295 295 294 294 295 296
298 298 299 299 301 301 301 301 302 302 303 305 305 305 304 304 304 304 304 303 304 304 304 304 306 307 307 308 308 309 309 309 309 311 312 313 314 315 315 315 314 315 314 314 312 310 307 305 304 301 298 297 296 294 290 290 290 289 295 300 299 298 298 299 300 300 301 301 300 299 297 297 297 296 290 289 289 291 294 294 294 293 292 293 295
299 299 300 299 300 300 300 301 301 301 303 303 303 303 303 303 303 304 303 303 304 304 305 306 307 307 308 308 309 309 309 310 310 311 312 313 314 314 314 313 314 314 313 311 308 307 304 302 302 300 299 298 296 295 294 289 290 290 290 298 298 297 297 298 299 298 298 298 298 299 297 291 290 289 288 288 288 288 292 293 293 291 291 291 295
298 299 298 299 299 298 298 300 300 301 302 302 302 302 301 303 303 303 303 304 305 305 305 306 307 307 307 308 308 309 309 310 311 312 313 313 313 312 312 313 311 310 308 306 304 303 301 300 301 301 300 300 299 297 295 289 290 290 287 290 297 298 298 298 297 296 296 296 296 297 299 294 288 288 288 288 288 288 288 291 291 290 291 292 291
298 298 298 299 299 300 300 300 301 302 302 302 302 301 301 302 302 302 304 305 305 305 306 306 306 307 307 308 309 309 310 311 311 311 311 311 312 312 311 310 307 304 303 302 302 301 301 300 300 299 299 300 300 298 296 290 290 289 289 288 295 298 296 295 294 295 295 296 296 297 299 294 287 288 287 287 287 287 287 290 290 288 288 287 289
297 297 298 298 298 298 298 300 301 302 302 302 302 301 301 302 302 303 305 305 305 306 306 306 306 306 307 307 308 309 309 310 310 311 311 310 310 309 308 306 305 303 302 301 301 300 299 298 298 299 300 300 299 297 293 295 289 290 288 289 288 292 290 294 295 294 295 296 298 298 298 291 287 287 287 287 287 287 288 289 287 287 287 287 288
297 297 297 297 297 298 299 300 300 301 302 302 302 301 301 301 302 304 305 305 305 305 306 306 306 306 307 307 307 308 308 309 309 309 309 308 306 305 304 303 302 301 301 300 300 299 298 297 296 297 298 298 299 299 292 291 293 287 289 288 287 287 288 294 295 295 296 296 297 297 294 288 287 287 287 287 288 288 289 287 287 287 287 287 289
297 296 298 298 298 299 299 300 301 302 302 302 303 301 301 301 303 305 304 304 304 305 305 305 306 306 307 307 307 307 308 308 309 308 307 304 304 303 301 301 301 300 299 298 298 298 297 297 296 296 297 297 297 298 296 291 289 290 288 288 287 287 287 287 293 296 296 296 291 288 288 288 288 288 287 287 288 288 287 287 287 287 288 290 289
297 298 298 298 299 299 299 299 300 301 302 302 303 302 301 302 304 304 305 305 304 304 304 304 305 306 306 305 305 306 307 307 308 308 306 305 303 301 300 300 300 300 299 298 297 297 296 296 296 296 295 296 296 297 297 297 293 292 291 288 287 288 289 289 290 292 290 289 288 288 287 287 288 289 291 291 291 291 288 288 287 288 290 290 290
297 298 299 299 299 299 299 299 299 301 302 302 303 303 303 304 304 305 305 305 304 304 303 305 305 305 306 306 305 305 306 306 306 305 304 302 301 301 300 299 298 297 297 296 296 296 295 294 293 295 295 295 295 295 296 296 297 297 298 297 297 296 291 289 293 296 292 294 292 291 291 289 288 287 287 287 288 289 290 291 291 291 292 292 292
299 300 300 300 300 299 299 299 299 301 302 302 303 303 303 304 304 304 304 305 304 303 303 303 304 305 306 306 305 297 301 304 303 303 301 300 301 301 299 297 296 295 295 295 294 294 294 293 293 293 293 293 293 294 294 294 295 296 297 296 296 296 296 296 295 295 294 292 292 290 290 293 292 291 291 291 291 291 290 290 290 290 290 291 290
299 300 300 299 300 299 300 300 300 301 302 302 302 303 304 305 305 305 305 303 302 301 302 303 304 305 305 304 304 304 304 302 300 300 301 301 300 299 298 297 298 297 295 294 294 294 294 295 294 294 293 293 293 294 295 290 293 288 289 294 294 294 294 294 291 287 289 291 291 292 291 290 290 288 288 288 289 289 289 290 290 290 290 290 290
299 300 300 300 300 300 300 300 300 301 302 302 302 302 303 303 303 304 304 303 303 303 303 303 303 303 304 304 304 303 302 299 299 297 295 293 288 290 296 298 298 292 291 292 292 295 297 296 295 295 297 294 293 294 287 286 287 287 287 286 287 287 287 288 287 286 287 289 289 289 289 289 288 288 287 287 287 288 287 288 288 288 288 289 289
299 298 298 299 299 299 299 299 300 301 301 301 301 302 302 303 304 304 303 303 303 301 302 302 302 302 301 304 303 301 300 299 298 296 295 295 296 294 287 287 290 291 290 289 290 290 290 291 295 292 291 286 287 286 286 288 287 287 287 287 287 287 287 287 287 287 288 289 289 289 288 288 288 288 287 287 287 287 287 287 288 288 288 288 287
Wind_Speed
9 11 11 12 11 8 8 7 7 7 7 8 8 8 8 8 8 8 7 7 6 6 6 4 4 3 2 2 3 3 3 4 3 3 3 4 3 3 2 2 2 2 1 2 2 1 3 3 4 4 4 3 3 5 4 6 7 8 6 6 7 5 5 3 3 4 3 2 3 4 4 6 6 5 7 6 7 6 6 6 6 6 6 6 6
10 10 11 12 11 10 9 7 9 10 9 9 10 10 9 9 9 8 7 7 7 6 5 4 3 2 3 3 3 4 4 4 4 4 3 4 4 3 3 3 3 2 2 2 1 2 2 3 3 2 3 3 2 3 3 5 5 5 6 6 6 6 5 4 4 3 2 4 3 3 2 2 5 5 7 6 6 7 7 7 7 7 7 6 6
10 10 11 12 13 12 10 9 9 11 10 10 10 10 10 9 9 8 8 8 7 7 5 4 3 3 2 4 2 4 4 4 4 5 3 5 4 3 3 2 2 3 3 4 3 2 1 1 2 2 2 3 4 4 4 5 4 5 6 5 5 5 3 3 3 5 2 3 2 2 0 2 0 4 6 6 5 8 6 7 7 8 8 8 6
12 12 13 13 13 12 11 11 10 10 10 10 10 11 9 9 9 9 8 8 7 7 6 4 5 5 3 4 3 2 4 4 4 4 4 4 5 4 4 3 3 3 4 4 4 4 2 3 2 2 2 2 3 4 4 4 4 3 4 4 5 5 5 4 2 2 3 3 3 2 1 0 2 3 3 3 4 3 5 10 7 6 7 7 6
12 12 12 13 15 15 15 14 12 12 11 12 12 11 8 12 10 10 9 9 7 8 7 6 6 6 5 5 5 5 5 4 4 4 4 4 4 4 4 4 4 4 4 4 4 4 3 4 4 4 3 3 3 3 3 3 4 3 3 3 4 5 6 3 2 1 2 1 1 3 2 3 3 0 2 2 3 1 6 6 5 4 6 5 5
11 13 15 16 16 15 14 14 14 13 12 12 11 11 11 11 10 10 9 9 8 9 8 7 7 7 7 7 7 6 5 5 4 5 5 4 4 4 5 5 5 4 4 4 4 3 4 3 3 4 4 3 3 4 4 3 3 4 4 4 5 2 2 4 4 3 2 2 1 1 2 2 0 1 1 3 3 5 6 8 5 5 2 6 4
11 12 13 14 15 15 15 15 15 15 14 11 11 11 12 11 11 11 10 9 9 9 9 7 7 7 8 7 6 6 5 4 4 4 4 4 4 4 4 4 4 4 4 4 4 4 4 4 3 3 4 3 3 3 4 3 3 5 5 4 3 3 3 2 2 4 4 4 2 1 1 2 3 2 2 3 5 2 4 2 3 2 1 3 4
9 12 13 13 13 15 17 16 15 15 13 12 11 11 13 12 11 12 10 10 9 9 10 8 8 7 8 7 6 6 5 6 6 5 4 5 5 5 4 4 4 4 4 5 5 5 5 5 4 4 3 4 3 4 3 4 4 4 4 3 3 2 2 3 3 3 2 2 2 2 2 3 3 3 3 3 5 5 2 5 3 2 2 4 4
9 10 12 14 13 14 14 14 14 14 13 13 12 12 12 11 11 12 11 11 10 11 10 10 8 8 8 7 6 5 5 6 6 6 5 5 6 4 4 5 5 4 4 5 5 6 5 5 5 4 4 4 4 5 5 5 6 5 4 4 4 3 3 2 0 3 2 3 1 1 2 2 3 3 2 2 4 5 5 3 4 3 4 3 4
9 11 11 10 13 13 13 13 14 14 13 12 11 11 12 11 12 13 12 11 10 12 11 11 10 8 8 8 8 6 6 5 5 6 6 5 6 5 5 5 5 5 4 4 5 6 6 7 6 6 5 5 5 6 6 6 6 6 5 5 5 5 4 4 3 2 1 2 1 1 3 1 4 4 4 3 3 4 6 5 5 6 6 3 3
6 8 10 10 9 10 11 13 14 13 12 12 12 12 12 12 13 14 13 11 11 12 12 12 11 10 9 9 9 8 8 7 6 6 6 6 6 6 5 5 5 5 5 5 6 7 7 6 6 6 5 5 5 5 5 5 6 6 6 6 5 5 5 5 4 3 3 2 1 1 1 2 3 3 4 3 4 5 5 5 6 6 6 6 6
7 7 8 9 10 10 10 12 13 14 12 12 11 12 13 12 12 14 14 14 12 12 13 12 11 10 10 9 9 9 9 7 7 7 7 7 6 6 5 5 5 5 5 6 6 6 6 6 6 6 5 5 5 5 5 5 5 5 5 5 5 5 5 4 4 4 3 3 2 2 2 2 0 1 2 3 4 4 4 5 6 6 6 5 5
6 6 5 6 9 10 12 12 12 13 13 14 12 12 12 12 13 15 15 14 12 13 13 13 11 11 10 9 9 8 9 8 7 7 7 6 6 6 6 6 6 6 6 6 7 7 6 6 6 5 5 5 5 5 5 5 5 5 6 6 5 5 4 4 4 4 3 2 3 2 1 1 1 1 2 2 3 3 4 6 6 6 7 6 6
6 4 3 3 6 8 10 11 12 11 13 13 13 12 11 11 13 14 14 13 12 12 13 13 12 11 10 9 8 8 8 8 7 7 7 6 6 6 6 6 6 6 7 7 7 7 5 5 5 6 6 6 6 5 5 5 5 5 6 6 6 5 5 6 5 5 4 3 2 2 1 1 1 0 1 2 3 3 3 4 6 6 7 8 7
6 5 4 1 2 5 6 7 8 8 9 11 10 11 11 11 12 14 14 14 13 13 12 13 11 11 10 9 8 7 7 8 8 7 7 7 6 7 6 6 5 6 7 7 9 7 6 6 6 6 7 7 6 6 5 5 4 4 5 5 4 4 4 4 4 4 3 3 2 1 2 1 0 1 1 2 3 3 4 4 4 6 6 6 7
7 6 6 4 3 4 5 5 6 6 8 8 9 10 10 10 11 12 13 12 13 13 12 12 12 10 11 10 10 9 7 7 7 7 7 7 7 7 7 7 6 6 7 8 9 8 7 7 7 7 7 7 6 6 6 5 5 4 4 4 4 3 4 4 4 3 3 3 2 1 1 1 0 0 2 1 2 2 4 4 4 4 6 7 6
8 7 6 6 4 4 5 5 5 6 7 8 9 9 10 10 10 11 11 10 12 12 12 12 11 11 11 11 10 9 9 9 7 9 9 8 8 8 7 8 7 7 7 8 9 8 8 8 7 7 7 6 6 6 6 6 5 4 5 5 5 4 4 3 2 3 3 1 2 1 2 1 1 1 2 2 2 2 3 4 5 5 4 6 6
9 9 8 7 7 7 6 4 4 4 5 6 8 8 8 9 10 10 11 10 10 11 11 11 11 11 10 11 11 10 9 9 8 8 8 8 8 8 7 8 8 8 8 8 9 10 9 9 8 8 7 7 6 6 6 6 5 5 5 4 4 4 4 4 3 3 2 2 1 1 1 1 2 2 1 2 3 3 3 4 4 4 5 6 6
8 10 9 9 8 8 7 6 7 5 4 3 4 5 5 6 7 8 10 11 10 8 9 9 10 9 8 10 10 10 9 8 8 8 8 9 10 9 9 8 8 9 9 9 10 10 9 9 8 8 7 7 7 6 6 6 5 5 5 5 5 4 4 4 3 3 2 2 2 1 1 1 1 1 2 2 2 3 3 4 4 4 5 6 7
8 10 10 10 10 10 10 8 7 7 5 5 4 3 2 3 3 4 4 6 8 8 7 9 9 9 8 7 9 9 9 9 8 8 8 9 10 10 10 10 10 9 10 11 10 11 11 10 9 9 9 8 8 7 7 6 6 5 5 5 5 5 5 5 4 3 2 2 1 1 1 2 2 3 2 2 3 3 3 5 4 5 5 5 6
8 9 10 11 10 9 9 8 9 10 8 6 6 6 4 2 1 3 4 5 6 7 7 7 7 8 9 9 9 9 10 9 9 8 8 8 8 9 9 10 10 10 10 11 11 12 12 11 11 10 10 9 9 8 6 6 5 6 5 5 6 6 5 4 4 5 4 2 1 0 1 0 1 3 3 3 3 3 4 4 5 5 5 5 6
9 9 10 10 11 11 11 10 10 10 10 10 9 8 7 4 2 1 0 2 4 6 7 7 8 8 10 10 10 10 9 8 9 9 9 8 8 9 9 9 10 11 11 12 13 11 11 12 11 11 10 10 9 9 8 7 6 7 6 5 5 5 5 4 3 3 3 2 2 1 0 0 1 3 3 6 4 3 4 5 4 4 6 6 5
8 9 10 10 11 11 12 13 13 13 12 11 10 9 9 8 6 4 3 2 1 2 4 5 7 8 8 9 9 10 10 10 10 9 9 9 9 9 9 10 10 10 11 12 13 12 12 12 12 11 11 10 10 9 8 8 7 8 7 7 6 6 5 5 4 3 2 2 2 1 1 0 1 2 3 4 4 5 5 5 5 5 6 7 7
8 8 8 9 9 10 10 11 12 12 12 11 10 10 10 10 9 7 7 8 5 2 1 3 4 5 6 7 8 8 9 10 10 10 10 10 9 8 8 9 10 9 11 11 13 14 13 13 12 12 11 10 10 9 9 8 8 8 7 8 7 6 5 5 4 3 2 2 1 1 1 1 2 3 3 3 4 4 4 5 6 6 7 7 7
7 8 8 9 10 10 10 10 10 10 11 10 10 10 9 9 7 7 7 8 7 6 4 2 2 5 5 6 6 7 8 9 11 10 10 10 9 9 8 9 9 10 10 10 11 12 13 14 12 13 12 12 11 11 10 9 8 8 8 7 7 7 6 5 4 3 3 2 1 2 2 2 2 4 4 4 4 5 6 6 6 7 7 7 6
7 7 8 9 8 9 9 9 8 8 8 8 8 8 8 8 8 7 9 8 8 7 7 7 5 3 4 6 6 6 7 8 10 12 12 9 9 10 10 9 10 11 10 10 12 12 12 14 14 14 14 13 12 11 10 10 9 8 8 7 7 6 6 5 4 3 2 2 2 1 1 2 2 4 4 4 5 6 6 7 8 8 8 8 8
6 6 6 7 8 9 8 8 7 7 7 7 7 8 7 7 7 7 7 7 7 7 7 7 7 6 4 4 5 5 6 8 10 11 11 9 9 10 11 11 10 11 11 11 11 13 11 12 12 12 13 13 13 12 11 10 10 9 8 7 6 6 5 4 3 3 2 2 2 1 1 2 3 3 4 5 5 6 6 8 8 8 8 8 9
5 5 6 6 7 7 7 7 6 6 6 6 6 7 6 6 6 5 5 5 4 6 6 6 6 6 6 7 6 6 5 7 9 10 10 10 11 12 12 11 10 11 11 12 12 13 11 12 12 12 12 11 11 11 11 10 9 9 8 7 6 5 5 4 3 3 2 2 2 2 2 1 1 2 4 5 6 6 7 8 7 7 8 9 9
5 5 5 5 6 6 6 6 5 6 6 6 5 5 5 4 5 5 5 6 5 5 4 4 3 3 4 5 5 5 5 6 6 7 9 10 11 11 12 12 11 10 9 11 11 12 13 14 12 12 12 11 11 11 10 10 9 9 8 7 6 5 4 3 3 3 2 2 2 1 2 2 1 3 4 6 8 7 7 8 8 8 9 9 10
5 4 4 5 5 5 5 5 6 7 7 6 6 6 6 5 6 6 5 6 5 5 5 5 5 4 4 4 5 5 6 6 6 6 6 7 8 10 10 11 12 12 11 10 11 12 12 13 13 13 12 12 10 9 9 13 10 9 9 7 6 5 4 3 2 2 2 2 2 3 2 3 4 8 9 10 11 12 12 10 9 8 9 9 10
5 5 4 4 4 4 5 5 6 6 6 5 5 5 5 5 5 6 5 6 6 6 5 5 6 6 6 5 5 5 5 7 6 6 6 6 7 7 9 10 11 11 11 11 11 13 13 13 14 13 13 11 10 7 14 12 10 7 7 7 6 5 4 3 3 2 2 2 3 3 5 4 8 11 12 15 14 13 13 14 15 14 13 11 11
5 4 4 3 4 4 5 5 5 5 5 4 4 5 4 5 5 5 5 5 5 5 5 5 6 6 7 7 6 7 7 6 6 7 7 7 6 7 7 8 10 11 10 10 11 12 12 13 12 14 13 11 9 13 15 14 12 8 4 6 5 4 3 3 3 2 2 2 3 4 4 4 5 5 7 8 9 14 15 15 15 15 15 16 16
4 3 3 3 3 4 4 4 4 4 5 5 5 5 5 4 5 4 4 4 4 5 5 5 6 7 7 7 7 7 7 7 7 7 6 6 7 7 7 8 8 9 9 10 12 12 12 13 13 14 12 11 9 15 15 14 12 9 5 3 5 4 3 3 2 3 3 4 4 5 5 5 5 3 7 7 8 8 9 15 16 16 17 17 17
3 2 2 3 3 4 4 5 5 4 5 6 6 5 4 4 4 5 5 6 6 5 5 5 6 7 7 7 7 7 7 7 7 7 7 7 7 8 7 7 7 8 10 10 11 12 12 14 13 13 12 11 12 14 16 14 12 10 8 4 3 4 3 3 4 4 4 5 5 6 6 7 7 7 7 8 8 8 9 9 8 9 10 14 20
1 2 3 4 4 4 5 5 5 6 6 5 5 5 5 5 5 6 6 6 7 7 7 7 7 7 7 6 7 7 8 7 7 8 8 8 8 8 8 8 8 9 10 10 11 12 12 13 12 11 11 11 10 16 15 14 12 10 8 5 4 4 4 4 4 5 5 6 6 6 7 8 8 8 7 8 10 10 10 9 10 11 11 12 11
3 4 4 5 5 6 6 5 5 6 6 6 6 6 6 6 6 7 7 8 8 8 8 8 8 7 7 7 7 8 8 8 8 8 8 8 8 8 8 8 8 8 9 9 10 10 11 13 12 11 10 12 11 16 15 14 13 11 10 5 5 4 4 4 4 5 6 6 7 7 8 8 8 9 10 3 4 8 11 12 12 12 12 12 11
3 4 5 5 5 6 6 6 6 6 7 7 7 7 7 7 7 7 8 9 9 9 9 9 9 8 8 7 8 8 8 8 8 9 9 8 8 8 8 8 8 9 9 10 10 10 11 11 12 11 11 11 11 12 14 14 13 12 9 4 3 4 4 4 5 5 6 7 7 8 8 8 10 10 7 5 3 3 10 12 13 13 12 12 12
5 5 6 6 7 7 7 7 9 9 8 8 8 7 8 8 8 8 8 9 9 10 10 10 10 9 9 9 9 9 10 9 9 9 9 8 8 7 8 7 8 9 10 10 9 9 9 9 11 11 12 13 11 11 14 13 12 13 7 3 3 4 4 5 6 6 6 7 8 7 9 11 10 10 3 4 2 6 10 12 14 15 15 14 14
6 7 8 8 7 8 9 9 9 9 8 8 9 10 10 9 8 8 9 9 9 10 10 10 10 9 9 10 10 10 10 10 10 9 9 9 8 8 7 7 8 9 9 8 9 8 8 7 8 10 12 12 10 9 11 11 11 10 6 3 3 4 5 6 6 7 7 7 9 9 10 11 11 10 6 5 3 6 10 13 15 15 15 16 14
8 8 7 9 10 10 10 10 10 11 10 10 10 10 10 10 10 9 9 9 10 10 11 10 10 10 9 9 9 10 10 10 11 10 9 9 8 8 8 8 8 8 7 7 7 8 9 7 9 11 9 9 9 9 10 11 10 9 5 4 3 5 5 6 6 7 8 9 10 10 9 9 9 3 2 2 4 6 9 13 14 14 15 16 13
11 10 9 10 10 11 11 12 11 11 11 11 11 11 11 11 11 10 11 10 10 11 11 11 10 10 10 10 10 10 11 11 10 10 9 9 8 8 8 7 7 5 5 6 8 8 9 8 8 7 6 6 7 9 9 10 8 6 3 2 3 4 5 5 7 9 9 10 10 10 9 3 10 6 6 4 6 7 8 13 15 16 16 15 15
12 13 13 12 11 11 12 13 12 12 12 11 11 12 12 12 12 12 12 11 12 12 11 11 11 11 10 10 11 11 11 10 10 10 10 9 9 7 5 7 6 7 8 8 9 9 9 9 8 7 6 6 5 7 10 8 9 6 5 3 4 2 4 6 8 9 10 10 10 10 10 6 10 8 7 9 10 12 14 15 17 19 18 17 17
15 15 14 13 13 14 13 13 12 12 11 11 12 14 13 13 13 14 12 12 12 11 12 12 12 11 11 11 11 12 11 9 10 10 11 11 7 6 6 7 7 9 10 10 9 9 9 8 7 6 6 6 7 7 8 8 9 8 7 6 2 4 2 5 7 9 10 10 10 10 8 9 15 15 15 15 17 18 17 16 18 16 17 16 15
14 14 15 14 15 15 14 14 13 12 12 12 12 14 13 14 15 12 12 12 12 12 12 12 11 12 11 11 11 12 12 12 12 11 10 7 6 6 7 6 8 8 9 9 7 8 9 8 7 6 5 5 5 6 4 5 7 7 6 6 6 6 6 6 7 8 9 9 9 9 10 17 17 17 18 17 17 18 16 19 19 20 20 18 14
16 16 15 15 15 17 16 16 14 14 13 13 13 14 16 16 14 13 13 13 13 13 12 12 12 12 12 11 11 12 12 12 11 8 7 7 8 9 9 9 8 9 9 8 7 7 8 8 7 7 7 6 5 5 6 6 6 7 7 7 8 8 8 8 7 8 8 9 9 11 14 16 15 16 18 19 17 17 18 17 17 17 16 13 13
16 16 15 16 16 18 18 18 17 16 15 14 14 15 17 16 14 14 14 13 13 13 13 13 13 12 13 13 13 12 12 10 7 5 8 8 9 10 10 11 9 7 7 9 8 8 9 9 8 8 7 6 5 4 4 6 7 7 8 9 9 10 10 10 12 11 13 15 16 16 16 16 16 14 12 11 12 13 14 16 18 19 13 12 12
17 16 15 15 16 16 17 17 17 15 14 14 15 15 16 15 14 14 14 14 13 14 14 13 13 13 12 12 12 11 9 7 5 7 7 8 9 9 11 11 7 7 6 6 5 7 9 8 7 7 6 5 4 2 2 1 1 2 4 2 7 7 11 13 11 7 8 8 9 10 12 14 15 17 17 16 16 15 13 12 10 10 10 11 11
15 16 16 17 17 18 18 18 17 15 14 15 15 16 15 15 15 14 14 14 14 14 14 14 14 12 11 10 10 5 5 5 6 8 9 9 9 11 10 8 6 7 8 8 6 7 7 7 6 5 5 4 4 3 2 2 2 3 4 4 4 5 6 6 7 7 8 10 10 11 11 9 9 9 9 9 9 10 10 11 10 10 11 11 12
17 17 16 16 17 18 19 19 18 16 16 16 16 16 15 16 15 14 14 15 14 15 14 15 14 12 12 10 9 7 7 7 8 7 5 7 9 9 8 7 7 7 6 8 7 6 6 6 6 5 5 4 4 4 4 5 3 4 2 4 5 5 6 7 7 9 10 10 10 10 8 9 9 9 9 9 10 10 10 10 12 11 10 11 11
17 15 17 18 18 18 19 19 18 17 16 16 16 16 16 16 16 14 14 14 14 13 14 14 13 12 11 8 7 6 7 8 9 8 7 7 13 12 7 9 6 4 8 10 7 7 7 7 5 5 3 2 3 6 8 5 5 5 5 5 6 7 8 8 11 13 11 9 8 8 8 8 9 9 10 10 10 10 11 11 10 11 11 11 11
17 18 18 19 20 20 20 21 19 18 18 18 18 17 17 16 15 14 14 14 14 13 12 11 11 11 10 6 7 8 10 10 8 10 9 10 9 11 17 15 9 8 12 14 15 13 10 8 7 5 9 15 13 9 5 4 3 4 4 5 6 7 8 9 10 8 7 7 8 9 9 9 9 9 10 10 11 11 11 11 11 11 10 10 11
Wind_Direction
163 165 167 177 179 169 175 174 173 170 172 176 183 188 188 189 181 177 171 169 175 179 183 184 178 159 158 162 138 141 121 115 103 82 82 73 67 87 95 86 75 73 103 154 145 135 166 163 162 178 174 198 185 243 191 145 188 213 217 219 223 218 219 224 226 237 233 272 257 263 272 281 293 293 286 253 238 234 229 230 232 230 232 232 239
159 167 172 178 184 172 172 178 177 179 184 183 188 187 187 190 187 178 171 175 181 187 177 179 175 171 168 156 144 141 147 153 123 117 96 90 90 78 71 67 65 76 75 89 180 167 171 169 171 189 192 153 118 114 145 161 163 185 197 198 208 213 217 201 206 196 203 240 252 240 246 261 271 289 282 283 253 226 219 228 229 233 230 225 229
177 179 177 183 189 180 179 185 187 192 182 185 186 184 183 187 189 180 179 178 180 184 186 176 159 130 180 123 152 110 68 55 87 91 105 107 93 89 74 69 88 92 88 77 88 111 123 156 153 153 144 135 133 135 136 154 176 186 197 202 180 204 206 167 195 225 213 223 212 230 245 323 194 249 268 279 293 290 288 236 224 236 234 236 233
199 188 184 184 189 187 188 188 188 186 182 182 184 185 182 188 188 183 176 182 179 183 194 157 144 136 108 122 91 93 114 109 102 112 105 109 103 78 78 82 89 92 92 113 91 79 104 102 91 90 97 99 115 116 114 111 143 172 201 194 183 179 189 187 224 223 254 216 232 265 95 177 273 214 235 250 275 272 292 295 268 247 239 224 219
214 197 189 187 190 194 194 191 181 184 187 184 183 184 182 184 186 181 175 180 182 178 179 148 142 148 136 132 129 115 128 141 145 130 128 115 111 104 93 97 104 94 90 74 93 101 90 95 90 90 80 80 94 93 86 97 125 135 144 170 195 214 168 157 157 158 152 23 194 113 163 207 233 91 323 288 267 77 270 280 279 286 272 264 247
231 214 201 195 196 194 194 189 187 188 189 187 183 183 179 182 181 178 176 179 182 180 178 172 174 168 162 164 162 159 150 160 159 142 146 147 111 109 110 105 92 94 93 86 78 95 110 113 116 111 102 97 82 76 88 92 106 107 80 71 73 99 212 186 156 156 138 142 174 320 358 320 1 73 298 233 177 209 224 217 196 195 268 268 267
234 234 220 205 199 195 193 193 191 190 190 179 179 181 181 180 178 178 179 178 181 181 180 183 184 183 179 177 167 161 150 141 119 131 130 116 121 122 112 114 112 105 91 91 95 94 97 106 111 104 112 112 94 87 79 59 60 57 52 60 110 96 14 16 135 147 123 81 41 31 237 241 290 295 278 307 267 151 292 239 268 321 208 297 274
237 234 230 223 208 201 197 192 190 193 181 176 177 176 179 180 177 180 182 181 178 179 183 190 190 188 186 185 167 165 151 133 141 135 124 126 126 133 131 130 127 112 109 104 108 104 107 110 108 105 106 107 111 101 97 84 86 82 69 68 46 46 120 100 41 24 27 65 54 354 3 327 287 284 268 267 278 282 299 282 236 176 327 294 301
253 244 233 225 218 211 203 193 193 186 181 180 180 175 175 177 177 181 186 182 176 179 185 191 199 191 190 184 173 160 144 142 149 146 143 136 134 130 128 122 116 111 103 107 102 105 105 96 96 94 86 92 101 98 90 85 76 71 75 69 65 69 54 56 145 73 49 21 328 183 274 266 264 223 291 299 298 288 262 254 275 220 269 244 246
265 258 256 239 222 216 206 197 186 186 184 177 176 171 174 174 180 185 188 185 178 179 188 191 199 195 196 190 177 163 157 150 161 149 151 154 141 138 136 139 131 128 121 109 114 111 107 109 105 99 93 77 73 85 94 94 90 88 79 79 83 88 78 63 52 81 120 120 270 312 281 283 282 273 239 289 285 276 283 286 286 281 278 258 237
281 270 255 245 236 222 205 196 185 177 176 173 175 176 174 177 182 186 186 187 182 183 188 194 197 198 199 193 184 172 165 164 166 162 160 167 155 152 152 140 144 134 130 124 120 121 119 112 110 109 105 104 103 107 101 102 102 100 94 91 85 87 91 94 88 77 81 82 23 22 29 11 343 328 331 316 302 281 271 264 271 278 281 285 271
306 282 265 237 214 205 198 192 181 177 171 173 176 177 177 180 181 184 188 191 184 183 188 194 197 201 205 198 190 180 170 172 180 174 172 172 165 160 154 150 149 145 146 136 137 133 130 123 121 119 116 117 113 108 114 110 111 110 109 106 102 98 101 98 96 99 99 97 81 57 49 10 30 318 3 307 296 305 307 290 279 282 283 272 294
317 308 283 245 212 192 185 190 185 182 180 180 179 178 180 182 182 187 191 191 186 184 188 193 198 202 204 203 197 185 181 180 182 181 180 181 175 173 164 167 159 162 161 154 148 152 142 141 140 129 124 122 116 114 108 112 112 111 109 113 111 109 103 106 104 96 87 76 99 101 64 117 54 26 312 296 291 295 285 286 288 303 296 294 278
341 331 316 230 200 194 189 187 188 187 184 181 179 179 179 183 185 193 193 190 187 188 190 195 201 204 206 208 201 193 188 184 188 188 184 193 183 177 181 177 173 173 166 165 158 164 159 147 139 130 125 126 126 120 118 121 122 120 121 114 113 108 110 113 112 113 108 109 119 116 103 116 113 232 306 291 298 293 294 308 310 302 302 294 295
5 16 19 64 166 170 176 179 177 181 181 178 178 181 179 182 186 193 192 189 191 189 192 198 201 204 207 209 207 203 195 190 194 193 188 193 190 180 188 184 181 177 172 165 163 170 157 150 142 139 138 133 132 130 126 123 122 115 112 112 106 107 111 105 102 104 108 108 104 122 148 151 201 153 232 265 283 287 289 299 307 308 301 292 294
24 33 49 50 112 135 143 154 158 167 173 173 178 181 183 185 188 194 195 188 189 189 196 199 203 203 207 209 209 206 205 200 197 194 188 191 191 189 187 187 189 176 171 163 170 171 164 156 155 150 147 145 141 141 143 132 129 125 117 117 110 112 115 115 108 102 86 81 76 91 216 87 307 300 261 222 278 294 287 274 268 273 291 297 299
32 38 48 60 81 113 126 143 157 162 167 172 177 183 186 186 190 192 194 191 190 195 196 199 203 206 208 211 210 208 207 207 201 186 183 184 190 195 195 189 183 179 170 167 172 173 172 168 163 157 157 154 151 148 144 138 143 135 125 129 128 127 124 109 98 101 107 98 69 12 352 85 63 313 297 297 278 270 275 288 280 278 283 280 287
45 55 56 53 59 68 81 106 133 158 167 173 181 180 186 191 192 187 193 195 192 197 199 200 203 209 211 213 215 216 214 211 210 194 186 185 189 194 197 190 185 178 172 170 174 174 175 175 170 167 164 161 158 153 149 146 148 132 132 134 122 126 129 123 115 106 98 87 83 31 352 46 32 311 359 310 289 289 279 270 274 274 268 269 277
42 52 53 50 54 62 60 76 78 89 106 133 161 176 190 199 202 203 204 207 203 200 202 205 208 213 216 215 214 215 219 220 212 205 196 194 191 194 193 194 185 180 175 173 178 177 179 179 178 174 169 167 165 160 157 158 156 140 146 138 145 152 129 120 106 98 94 96 86 89 351 80 348 263 267 238 267 260 264 262 258 259 267 270 279
43 51 57 62 56 54 58 63 83 88 92 98 109 124 160 187 197 206 213 213 215 213 207 212 213 220 224 222 220 220 221 222 219 209 205 203 199 194 192 191 189 186 183 178 183 183 182 182 182 179 176 174 171 167 173 160 165 155 158 147 140 149 142 140 136 133 125 122 138 146 22 347 350 295 243 276 273 256 275 284 274 267 264 263 270
45 55 63 65 71 74 71 65 65 64 63 78 87 92 85 88 165 219 218 227 223 222 220 219 219 225 231 229 229 229 229 227 225 219 220 214 207 202 198 193 188 191 186 185 188 188 187 186 184 183 182 179 175 174 174 172 170 162 154 143 151 153 152 140 140 146 145 141 106 160 185 214 275 295 306 285 266 287 273 260 267 267 265 259 260
50 56 61 67 73 76 78 78 75 77 69 58 59 62 67 65 68 79 146 242 242 235 235 235 230 229 228 232 237 241 241 237 231 224 221 221 213 209 202 196 195 192 190 191 193 190 191 189 189 188 186 184 182 179 178 181 175 164 156 155 159 159 152 139 149 145 140 158 176 245 305 147 268 291 283 288 280 265 267 261 249 256 271 274 263
62 61 63 65 66 69 74 75 76 74 74 75 73 70 65 62 64 60 76 59 16 303 263 248 251 243 238 237 238 240 241 239 237 235 230 225 220 214 206 202 200 196 195 195 196 192 192 192 191 191 189 188 187 181 181 183 176 175 169 166 166 162 160 160 166 159 175 123 202 238 259 233 228 262 271 270 278 269 277 285 280 277 276 274 276
78 73 70 69 72 71 68 66 69 68 69 70 72 73 69 66 57 44 42 55 49 37 288 274 256 248 252 255 252 253 253 249 242 240 237 230 226 220 212 212 211 205 199 199 198 195 192 194 194 193 191 188 187 182 182 185 182 181 174 169 168 166 169 172 171 178 169 207 228 260 256 273 282 282 284 294 279 278 273 281 283 269 259 260 262
88 79 73 73 70 66 65 66 64 68 68 63 63 63 65 63 62 58 45 44 48 34 30 351 306 299 287 266 255 255 256 259 266 261 246 235 229 227 222 218 216 215 210 200 200 198 195 194 194 195 192 189 189 185 185 183 179 179 177 169 173 169 173 175 175 180 189 225 232 251 283 301 285 291 284 278 296 296 292 288 287 286 281 279 273
101 92 80 71 68 70 68 64 68 65 70 73 75 71 65 58 52 43 41 36 34 30 28 17 357 318 298 294 278 261 259 261 258 260 254 241 243 237 229 222 218 219 215 208 202 198 199 197 194 194 192 190 189 187 187 183 177 176 173 174 173 173 174 178 173 199 190 186 223 245 268 280 294 285 289 292 292 290 289 283 282 287 292 295 289
97 89 91 89 79 70 69 67 64 66 62 66 62 66 65 63 54 47 43 38 30 30 28 15 5 352 342 299 282 279 275 264 250 248 250 247 236 242 239 232 222 218 217 211 206 204 197 201 197 196 194 190 187 185 184 181 175 174 175 174 176 175 177 169 182 181 178 185 214 214 242 251 268 284 286 287 288 287 279 278 275 275 277 277 278
112 95 83 80 76 72 67 63 59 58 57 56 60 57 59 54 55 53 53 41 32 26 26 19 6 354 345 340 330 325 297 272 266 261 258 257 256 253 249 247 239 226 220 216 211 204 188 190 197 197 195 190 187 184 183 174 176 173 174 177 175 179 175 167 169 177 164 192 191 210 220 241 258 293 308 302 297 284 288 283 279 277 275 274 274
115 96 81 68 68 62 57 52 50 48 48 47 46 56 59 58 47 42 39 38 32 25 15 10 360 343 337 323 317 309 294 281 267 263 260 254 249 250 252 249 246 239 228 222 217 198 183 192 193 194 188 184 190 185 176 168 169 177 174 172 174 172 170 172 178 172 190 207 233 219 236 221 32 329 309 284 280 289 284 277 275 277 273 271 269
121 103 88 76 65 59 55 50 37 28 23 22 25 18 26 25 29 21 20 19 13 9 2 355 344 341 313 300 299 292 289 292 286 275 265 257 255 252 249 249 248 244 237 223 214 201 192 186 189 191 186 184 181 180 151 159 167 173 171 160 161 169 178 176 192 207 217 237 259 272 252 178 216 227 232 229 231 238 241 254 274 280 278 274 271
131 115 102 92 81 66 52 42 36 27 19 15 10 3 7 11 18 5 6 360 355 351 349 342 333 328 317 301 292 291 292 292 299 292 282 272 259 248 247 247 246 242 237 235 221 209 202 197 193 185 183 176 167 145 131 126 123 142 159 158 164 164 170 192 204 220 265 266 270 280 296 218 209 220 222 218 230 235 230 235 241 248 261 271 276
135 126 109 90 75 60 37 25 16 14 8 3 360 341 356 355 357 350 351 345 342 333 332 330 323 318 311 310 308 306 302 301 293 290 289 282 271 256 246 239 242 239 233 234 225 217 203 199 193 193 181 168 168 128 130 124 125 129 148 157 162 167 179 204 207 235 255 273 284 287 284 290 281 291 304 287 243 218 221 227 228 234 237 242 249
129 109 98 75 53 46 36 11 348 360 344 347 340 330 336 339 337 334 335 323 321 322 316 316 313 312 312 306 304 303 304 302 298 295 288 275 266 259 248 240 235 232 225 226 223 216 212 202 194 191 178 171 144 137 133 135 133 135 141 190 171 164 202 197 220 240 262 279 284 287 287 286 295 236 253 275 291 289 227 209 222 228 231 233 236
124 97 75 59 28 12 5 357 341 338 341 331 318 316 316 315 316 321 322 322 321 321 315 309 306 305 307 303 296 297 295 294 293 286 279 273 261 253 249 246 247 237 235 235 226 221 219 214 200 187 175 158 140 142 139 140 141 146 159 218 160 159 215 229 232 246 249 266 274 282 291 293 295 297 294 287 296 296 300 290 262 252 261 231 218
155 42 13 15 1 346 335 327 323 332 312 300 299 304 306 303 312 315 319 320 322 322 317 310 303 302 301 298 295 291 288 286 285 282 276 267 261 255 246 242 239 241 236 230 225 222 213 206 192 172 162 144 136 143 141 144 145 151 159 218 166 171 219 225 231 247 253 261 271 270 276 283 289 292 293 302 296 296 296 290 280 276 269 271 271
304 347 339 337 335 325 315 316 316 298 305 304 305 303 302 306 311 313 316 319 320 316 312 312 305 302 299 298 296 290 283 280 276 272 266 261 255 250 247 242 241 243 239 230 226 217 202 187 172 160 144 133 139 148 144 146 146 150 167 202 184 197 230 238 251 260 260 264 266 270 275 280 287 290 298 299 262 293 293 288 283 278 275 273 268
307 319 324 324 315 310 319 313 302 306 304 304 303 302 297 299 302 307 313 313 313 310 309 308 304 301 302 298 294 290 285 280 277 273 266 258 253 250 245 242 238 236 234 225 221 207 188 172 160 145 128 129 141 150 144 147 152 158 181 206 185 232 246 245 259 269 269 269 267 268 274 287 288 287 308 46 49 308 290 287 286 284 282 278 273
321 314 310 310 315 310 306 307 305 298 295 292 292 291 291 286 289 295 300 302 304 304 304 302 301 302 299 297 293 289 284 278 275 270 267 261 253 247 246 237 240 236 230 223 212 192 166 153 142 135 138 140 145 153 154 155 155 169 208 232 232 254 265 272 270 269 271 275 275 250 251 272 276 280 345 74 9 303 289 289 289 288 285 281 277
313 317 315 315 314 310 302 295 289 288 290 290 287 286 281 279 278 282 287 291 291 293 296 296 297 297 295 292 291 288 284 279 275 272 268 264 255 249 245 242 242 240 229 213 192 169 139 119 112 116 119 125 139 149 154 149 159 174 216 229 261 274 282 282 292 289 286 287 286 275 230 232 262 277 296 295 292 267 278 293 293 289 285 279 279
308 305 311 314 309 302 300 299 296 293 292 287 285 280 277 275 273 273 275 278 282 285 289 288 286 286 286 286 282 279 275 274 273 272 269 263 259 253 245 242 236 230 213 188 150 138 124 113 113 115 123 130 139 155 160 154 160 176 244 321 312 297 288 293 293 297 300 292 290 287 280 223 218 241 324 277 247 241 270 289 291 284 281 279 283
311 312 318 302 303 302 299 297 292 291 290 287 285 281 275 271 270 269 270 273 278 283 282 281 280 278 279 281 281 278 274 271 270 270 269 263 254 254 247 229 221 203 169 138 121 114 114 116 116 116 114 122 137 152 148 155 150 147 105 281 280 288 296 304 301 302 292 292 292 294 294 16 120 149 184 207 243 254 270 284 284 277 272 284 299
305 308 303 300 297 293 289 286 286 286 287 283 279 274 271 270 267 266 269 273 276 279 279 275 272 272 276 278 278 274 271 268 266 267 265 261 256 250 238 220 189 147 136 128 127 127 129 130 133 136 137 136 105 106 147 135 139 140 150 242 274 308 9 308 298 288 289 287 294 297 294 37 53 19 347 317 296 284 277 280 278 276 283 285 279
309 305 302 297 291 286 283 281 280 278 277 276 275 272 270 268 263 264 267 268 272 274 273 271 269 270 271 273 274 271 265 261 260 262 260 254 241 226 212 192 151 141 142 142 142 139 130 128 132 138 138 127 123 104 125 149 148 164 169 195 211 298 31 276 284 288 293 292 291 297 294 21 341 329 316 307 298 289 283 279 278 276 273 271 270
293 293 294 293 286 281 278 277 276 273 271 269 269 268 267 265 264 266 266 268 269 268 267 266 263 261 262 266 269 268 263 258 257 254 251 228 194 183 177 156 144 148 147 140 137 129 134 137 139 135 129 128 126 132 123 122 151 169 176 191 198 219 244 271 294 289 289 293 292 300 324 331 311 298 286 280 280 280 283 282 277 274 271 270 273
290 289 290 286 280 279 279 277 274 271 267 262 260 263 264 262 263 262 260 261 262 262 260 258 256 254 256 263 267 266 262 262 258 246 223 197 181 170 161 160 144 147 145 141 142 134 137 137 132 137 134 130 136 133 135 150 160 169 196 211 219 232 237 236 265 286 286 291 299 295 283 278 280 280 278 273 268 262 255 255 259 261 264 274 272
282 281 280 280 281 281 280 279 277 273 268 263 260 260 261 260 258 255 256 258 259 259 257 256 255 254 256 260 264 260 256 258 243 193 204 198 182 166 160 155 147 147 143 142 144 141 136 134 130 128 130 132 138 136 137 157 177 188 213 205 224 221 232 226 236 264 268 269 265 263 265 262 263 268 279 295 304 299 296 287 280 275 273 272 268
287 287 287 282 279 279 278 277 274 271 268 265 262 258 258 259 258 258 258 257 258 257 257 255 255 257 258 256 253 252 253 247 212 207 195 187 172 165 156 150 136 134 123 113 108 123 128 123 128 127 120 122 117 115 174 127 26 343 315 241 211 222 213 221 235 260 255 267 287 301 301 291 275 271 265 259 259 264 264 265 272 275 284 283 278
285 286 284 282 279 278 278 277 276 276 273 270 266 264 261 260 260 258 257 256 256 257 259 259 256 252 248 243 242 218 215 206 187 184 176 168 170 165 150 135 141 142 136 124 118 107 104 109 111 119 123 130 142 164 101 46 25 321 309 306 304 301 304 322 311 314 323 311 300 289 277 285 300 301 298 307 305 306 301 297 291 289 287 285 280
288 287 285 282 283 282 281 280 279 279 279 276 272 268 266 265 264 261 258 259 258 256 251 252 252 248 241 239 239 215 197 181 167 161 143 150 149 112 95 103 110 119 117 119 121 114 117 129 135 137 141 145 157 128 86 59 39 22 309 314 315 324 333 319 359 359 312 300 299 304 309 305 307 309 308 305 305 304 302 297 293 290 288 286 285
287 287 288 286 282 280 281 283 283 283 280 278 277 275 273 269 265 264 263 257 252 249 248 246 244 243 242 231 231 205 169 154 145 131 110 73 36 44 92 129 122 63 115 132 142 137 144 148 134 103 58 130 111 85 108 146 177 203 221 253 284 303 304 302 309 306 293 293 300 310 312 310 308 309 310 307 306 307 305 301 296 292 288 284 281
291 292 292 290 291 290 288 285 284 284 281 280 277 275 273 270 268 262 257 253 250 251 248 246 240 239 237 225 189 164 153 145 140 133 133 127 117 64 41 41 67 120 101 91 86 82 75 84 112 121 80 74 87 103 134 152 181 220 255 268 279 290 295 295 293 302 299 310 318 317 313 310 307 307 306 305 305 305 304 303 302 299 293 287 283